TimePST,TemperatureF,Dew PointF,Humidity,Sea Level PressureIn,VisibilityMPH,Wind Direction,Wind SpeedMPH,Gust SpeedMPH,PrecipitationIn,Events,Conditions,WindDirDegrees,DateUTC
12:56 AM,30.9,28.9,92,29.81,10.0,East,4.6,-,0.00,,Overcast,80,2012-12-21 08:56:00
1:56 AM,30.9,28.9,92,29.80,10.0,Calm,Calm,-,N/A,,Overcast,0,2012-12-21 09:56:00
2:56 AM,30.0,28.9,96,29.81,10.0,Calm,Calm,-,N/A,,Overcast,0,2012-12-21 10:56:00
3:56 AM,33.1,28.9,85,29.79,10.0,Calm,Calm,-,N/A,,Overcast,0,2012-12-21 11:56:00
4:56 AM,33.1,28.9,85,29.78,10.0,Calm,Calm,-,N/A,,Overcast,0,2012-12-21 12:56:00
5:56 AM,33.1,28.0,82,29.78,10.0,Calm,Calm,-,N/A,,Mostly Cloudy,0,2012-12-21 13:56:00
6:56 AM,30.0,28.0,92,29.80,10.0,Calm,Calm,-,N/A,,Overcast,0,2012-12-21 14:56:00
7:56 AM,32.0,28.0,85,29.81,10.0,SSE,3.5,-,N/A,,Overcast,150,2012-12-21 15:56:00
8:56 AM,34.0,30.0,85,29.80,10.0,Calm,Calm,-,N/A,,Mostly Cloudy,0,2012-12-21 16:56:00
9:56 AM,37.9,30.0,73,29.81,10.0,Calm,Calm,-,N/A,,Mostly Cloudy,0,2012-12-21 17:56:00
10:56 AM,41.0,30.0,65,29.77,10.0,South,4.6,-,N/A,,Partly Cloudy,170,2012-12-21 18:56:00
11:56 AM,41.0,28.9,62,29.76,10.0,SSW,5.8,-,N/A,,Mostly Cloudy,210,2012-12-21 19:56:00
12:56 PM,41.0,28.9,62,29.74,10.0,Calm,Calm,-,N/A,,Overcast,0,2012-12-21 20:56:00
1:56 PM,39.9,30.9,70,29.71,10.0,SW,5.8,-,N/A,,Overcast,230,2012-12-21 21:56:00
2:56 PM,39.0,30.9,73,29.73,10.0,WSW,6.9,-,N/A,,Overcast,240,2012-12-21 22:56:00
3:14 PM,39.2,30.2,70,29.69,10.0,WSW,5.8,-,N/A,,Overcast,250,2012-12-21 23:14:00
3:32 PM,37.4,32.0,81,29.69,8.0,SSW,5.8,-,0.00,Rain,Light Rain,200,2012-12-21 23:32:00
3:56 PM,36.0,33.1,89,29.74,10.0,SSE,4.6,-,0.00,Rain,Light Rain,150,2012-12-21 23:56:00
4:06 PM,35.6,33.8,93,29.69,10.0,SE,5.8,-,0.00,,Overcast,130,2012-12-22 00:06:00
4:56 PM,35.1,32.0,89,29.71,10.0,SE,3.5,-,0.00,,Scattered Clouds,130,2012-12-22 00:56:00
5:56 PM,34.0,30.9,89,29.72,10.0,Calm,Calm,-,N/A,,Partly Cloudy,0,2012-12-22 01:56:00
6:56 PM,33.1,30.9,92,29.73,10.0,SSE,4.6,-,N/A,,Mostly Cloudy,150,2012-12-22 02:56:00
7:56 PM,36.0,30.0,79,29.73,10.0,South,9.2,-,N/A,,Mostly Cloudy,180,2012-12-22 03:56:00
8:56 PM,36.0,28.9,76,29.73,10.0,SSW,6.9,-,N/A,,Mostly Cloudy,200,2012-12-22 04:56:00
9:56 PM,30.0,27.0,88,29.72,10.0,Calm,Calm,-,N/A,,Clear,0,2012-12-22 05:56:00
10:56 PM,35.1,28.0,76,29.68,10.0,SE,5.8,-,N/A,,Clear,140,2012-12-22 06:56:00
11:56 PM,37.0,28.0,70,29.68,10.0,SSE,10.4,-,N/A,,Scattered Clouds,150,2012-12-22 07:56:00